#timestamp,LO_Frequency,Hit,StdDev 
1504134015.0,286047003.8,Y,0.0
1504134015.9,286047003.8,P,1.2
1504134035.8,286046999.7,N,1.7
1504134055.6,286046999.7,N,1.7
1504134075.4,286046999.8,N,1.6
1504134095.3,286047002.4,N,1.6
1504134115.1,286047000.2,N,1.5
1504134116.0,286047000.2,N,1.4
1504134135.8,286047002.4,N,1.4
1504134155.7,286047002.7,N,1.4
1504134175.5,286042725.2,Y,0.0
1504134195.3,286046999.5,P,0.9
1504134215.2,286046998.3,N,1.2
1504134235.9,286047000.5,N,1.1
1504134255.7,286047000.7,N,1.0
1504134275.6,286047002.8,N,1.4
1504134295.4,286047001.6,N,1.3
1504134315.2,286047002.5,N,1.4
1504134335.1,286047002.2,N,1.4
1504134336.0,286047002.2,N,1.4
1504134355.8,286047000.3,N,1.3
1504134375.6,286047000.5,N,1.3
1504134395.5,286047000.0,N,1.3
1504134415.3,286046999.9,N,1.2
1504134435.1,286047000.1,N,1.2
1504134455.9,286046999.9,N,1.2
1504134475.7,286047000.1,N,1.2
1504134495.5,286047002.3,N,1.2
1504134515.4,286047002.4,N,1.2
1504134535.2,286047002.3,N,1.2
1504134555.0,286047002.8,N,1.3
1504134555.9,286047002.8,N,1.3
1504134575.8,286047002.1,N,1.3
1504134595.6,286047002.2,N,1.3
1504134615.4,286047002.3,N,1.2
1504134635.3,286047000.1,N,1.2
1504134655.1,286047000.9,N,1.2
1504134656.0,286047000.9,N,1.2
1504134675.8,286047002.4,N,1.2
1504134695.7,286047002.7,N,1.2
1504134715.5,286047002.2,N,1.2
1504134735.3,286047001.5,N,1.2
1504134755.2,286047003.8,Y,0.0
1504134775.0,286047001.9,P,0.3
1504134775.9,286047001.9,P,0.2
1504134795.7,286047002.0,P,0.2
1504134815.6,286047001.6,Y,0.0
1504134835.4,286047000.0,P,0.9
1504134855.3,286047000.0,N,0.8
1504134875.1,286046998.5,N,1.2
1504134876.0,286046998.5,N,1.2
1504134895.8,286046998.9,N,1.2
1504134915.7,286046998.9,N,1.1
1504134935.5,286046998.3,N,1.1
1504134955.3,286046998.6,N,1.1
1504134975.2,286047001.1,N,1.2
1504134995.9,286047000.7,N,1.2
1504135015.7,286047001.1,N,1.2
1504135035.6,286047000.8,N,1.2
1504135055.4,286047000.8,N,1.2
1504135075.2,286047000.3,N,1.1
1504135095.1,286047000.8,N,1.1
1504135096.0,286047000.8,N,1.1
1504135115.8,286047001.1,N,1.1
1504135135.6,286046998.8,N,1.1
1504135155.5,286046998.4,N,1.1
1504135175.3,286046998.8,N,1.1
1504135195.1,286046998.7,N,1.1
1504135215.9,286046999.4,N,1.1
1504135235.7,286046999.6,N,1.1
1504135255.5,286046999.0,N,1.1
1504135275.4,286046998.7,N,1.1
1504135295.2,286046999.3,N,1.1
1504135315.0,286046999.2,N,1.0
1504135315.9,286046999.2,N,1.0
1504135335.8,286047000.7,N,1.0
1504135355.6,286047000.7,N,1.0
1504135375.4,286046998.1,N,1.0
1504135395.3,286047000.3,N,1.0
1504135415.1,286047001.1,N,1.0
1504135435.8,286047001.1,N,1.0
1504135455.7,286047001.2,N,1.0
1504135475.5,286046998.6,N,1.1
1504135495.3,286046998.4,N,1.1
1504135515.2,286046998.2,N,1.1
1504135535.9,286046999.3,N,1.0
1504135555.7,286046998.9,N,1.0
1504135575.6,286046998.4,N,1.0
1504135595.4,286046999.1,N,1.0
1504135615.2,286046998.9,N,1.0
1504135635.1,286047000.8,N,1.0
1504135636.0,286047000.8,N,1.0
1504135655.8,286047001.0,N,1.0
1504135675.6,286046998.1,N,1.0
1504135695.5,286047001.0,N,1.0
1504135715.3,286047000.8,N,1.0
1504135735.1,286047000.7,N,1.1
1504135755.9,286047000.4,N,1.0
1504135775.7,286047000.7,N,1.1
1504135795.5,286047001.0,N,1.1
1504135815.4,286047000.3,N,1.1
1504135835.2,286047002.6,N,1.2
1504135855.0,286047000.2,N,1.2
1504135855.9,286047000.2,N,1.2
1504135875.8,286047000.4,N,1.1
1504135895.6,286047002.8,N,1.2
1504135915.4,286046999.8,N,1.2
1504135935.3,286046998.1,N,1.2
1504135955.1,286047000.9,N,1.2
1504135975.8,286047000.7,N,1.2
1504135995.7,286047000.7,N,1.2
1504136015.5,286047000.6,N,1.2
1504136035.3,286047000.6,N,1.2
1504136055.2,286047001.0,N,1.1
1504136075.0,286046998.2,N,1.1
1504136075.9,286046998.2,N,1.2
1504136095.7,286047000.6,N,1.2
1504136115.6,286047000.8,N,1.1
1504136135.4,286047000.0,N,1.1
1504136155.2,286047000.5,N,1.1
1504136175.1,286047001.2,N,1.1
1504136176.0,286047001.2,N,1.1
1504136195.8,286047000.1,N,1.1
1504136215.6,286047001.2,N,1.0
1504136235.5,286047000.0,N,1.0
1504136255.3,286047000.6,N,1.0
1504136275.1,286047000.9,N,1.0
1504136295.9,286047001.2,N,1.0
1504136315.7,286047000.8,N,1.0
1504136335.5,286047000.6,N,1.0
1504136355.4,286047001.0,N,1.0
1504136375.2,286047000.5,N,0.9
1504136395.0,286046998.4,N,1.0
1504136395.9,286046998.4,N,1.1
1504136415.8,286046998.5,N,1.1
1504136435.6,286047000.0,N,1.0
1504136455.4,286047000.5,N,1.0
1504136475.3,286047000.8,N,0.9
1504136495.1,286047001.1,N,0.9
1504136515.8,286047000.8,N,0.9
1504136535.7,286046998.2,N,1.0
1504136555.5,286047000.7,N,1.0
1504136575.3,286047000.7,N,1.0
1504136595.2,286047000.1,N,1.0
1504136615.0,286047000.1,N,0.9
1504136615.9,286047000.1,N,0.9
1504136635.8,286046999.7,N,0.9
1504136655.6,286047000.1,N,0.9
1504136675.4,286047002.2,N,0.9
1504136695.3,286046999.8,N,0.9
1504136715.1,286047000.1,N,0.9
1504136716.0,286047000.1,N,0.9
1504136735.8,286046999.7,N,0.9
1504136755.7,286047002.2,N,0.9
1504136775.5,286047001.0,N,1.0
1504136795.3,286047001.0,N,1.0
1504136815.2,286047000.1,N,1.0
1504136835.9,286047000.8,N,0.9
1504136855.7,286047001.1,N,1.0
1504136875.6,286046998.4,N,1.0
1504136895.4,286047000.7,N,1.0
1504136915.2,286042879.4,Y,0.0
1504136935.1,286047001.2,P,0.5
1504136936.0,286047001.2,N,0.5
1504136955.8,286047000.4,N,0.5
1504136975.6,286047000.6,N,0.4
1504136995.5,286047002.5,Y,0.0
1504137015.3,286047002.7,P,1.0
1504137035.1,286047001.0,N,0.9
1504137055.9,286047000.0,N,1.0
1504137075.7,286047002.6,N,1.1
1504137095.5,286046999.9,N,1.1
1504137115.4,286047002.6,N,1.2
1504137135.2,286047000.1,N,1.2
1504137155.0,286047002.2,N,1.1
1504137155.9,286047002.2,N,1.1
1504137175.8,286046999.9,N,1.1
1504137195.6,286046999.8,N,1.2
1504137215.4,286047000.0,N,1.2
1504137235.3,286047000.4,N,1.1
1504137255.1,286046998.2,N,1.3
1504137275.8,286047000.9,N,1.3
1504137295.7,286046999.9,N,1.2
1504137315.5,286047000.2,N,1.2
1504137335.3,286047001.6,N,1.2
1504137355.2,286046999.8,N,1.2
1504137375.0,286046999.7,N,1.2
1504137375.9,286046999.7,N,1.2
1504137395.7,286047002.6,N,1.2
1504137415.6,286046999.9,N,1.2
1504137435.4,286047000.9,N,1.2
1504137455.2,286046999.9,N,1.2
1504137475.1,286047001.4,N,1.1
1504137476.0,286047001.4,N,1.1
1504137495.8,286047001.4,N,1.1
1504137515.7,286047002.2,N,1.1
1504137535.5,286047000.9,N,1.1
1504137555.3,286682706.5,Y,0.0
1504137575.2,286046999.8,P,0.5
1504137595.9,286046998.9,N,0.8
